Ludington, MI

8:11 AM EST on November 21, 2019 (GMT -0500)
Mason County

Weather History for KLDM - September, 2019

Change the Weather History Date:

Friday, September 13, 2019

  Actual Average Record
Temperature  
Mean Temperature 68 °F -  
Max Temperature 73 °F 73 °F 90 °F (1952)
Min Temperature 62 °F 53 °F 32 °F (1963)
Cooling Degree Days 2    
Growing Degree Days 18 (Base 50)    
Moisture  
Dew Point 62 °F    
Average Humidity 85    
Maximum Humidity 96    
Minimum Humidity 66    
Precipitation  
Precipitation 1.48 in - - ()
Sea Level Pressure  
Sea Level Pressure 29.96 in    
Wind  
Wind Speed 13 mph (SSW)    
Max Wind Speed 21 mph    
Max Gust Speed 29 mph    
Visibility 9 miles    
Events Rain    
Averages and records for this station are not official NWS values.
T = Trace of Precipitation, MM = Missing Value Source: NWS Daily Summary

Daily Weather History Graph

Daily Weather History Graph

Search for Another Location

Airport or City:

Astronomy

Sep. 13, 2019 Rise Set
Actual Time 7:22 AM EDT 8:00 PM EDT
Civil Twilight 6:53 AM EDT 8:29 PM EDT
Nautical Twilight 6:18 AM EDT 9:03 PM EDT
Astronomical Twilight 5:43 AM EDT 9:38 PM EDT
Moon 8:15 PM EDT (9/13) 6:35 AM EDT (9/13)
Length of Visible Light 13h 35m
Length of Day
12h 37m
Full, 100% of the Moon is Illuminated
Sep 13
Full
Sep 14
Full
Sep 21
Last Quarter
Sep 28
New
Oct 5
First Quarter

Hourly Weather History & Observations

Time (EDT) Temp. Dew Point Humidity Pressure Visibility Wind Dir Wind Speed Gust Speed Precip Events Conditions
12:15 AM 62.1 °F 59.0 °F 90% 30.07 in 10.0 mi ESE 17.3 mph 23.0 mph N/A   Overcast
12:35 AM 62.2 °F 59.0 °F 89% 30.06 in 10.0 mi SE 16.1 mph 23.0 mph N/A   Overcast
12:36 AM 62.2 °F 59.0 °F 89% 30.06 in 10.0 mi ESE 16.1 mph 23.0 mph N/A   Overcast
12:58 AM 62.6 °F 59.5 °F 90% 30.04 in 10.0 mi ESE 15.0 mph 25.3 mph N/A   Overcast
1:17 AM 63.0 °F 60.1 °F 90% 30.04 in 10.0 mi SE 15.0 mph 26.5 mph N/A   Overcast
1:35 AM 63.5 °F 60.4 °F 90% 30.03 in 10.0 mi SE 15.0 mph 21.9 mph N/A   Overcast
1:55 AM 63.7 °F 61.0 °F 91% 30.02 in 10.0 mi SE 15.0 mph 26.5 mph N/A   Overcast
1:56 AM 63.7 °F 61.0 °F 91% 30.02 in 10.0 mi SE 15.0 mph 26.5 mph N/A   Overcast
2:15 AM 64.0 °F 61.5 °F 91% 30.01 in 10.0 mi SE 11.5 mph 21.9 mph N/A   Overcast
2:20 AM 64.0 °F 61.7 °F 92% 30.01 in 10.0 mi SE 16.1 mph 24.2 mph N/A   Overcast
2:38 AM 64.4 °F 62.1 °F 92% 30.00 in 10.0 mi SE 15.0 mph 26.5 mph N/A   Overcast
2:56 AM 64.9 °F 62.6 °F 92% 30.00 in 10.0 mi SE 12.7 mph 20.7 mph N/A   Overcast
3:15 AM 64.9 °F 63.0 °F 93% 30.07 in 10.0 mi West 11.5 mph 17.3 mph 0.02 in Rain Heavy Rain
3:35 AM 64.0 °F 62.8 °F 96% 30.02 in 1.2 mi Calm Calm - 0.65 in Rain Heavy Rain
3:36 AM 64.0 °F 62.8 °F 96% 30.03 in 1.2 mi Calm Calm - 0.68 in Rain Heavy Rain
3:59 AM 63.9 °F 62.6 °F 96% 30.02 in 2.5 mi ENE 4.6 mph - 1.03 in Rain Heavy Rain
4:17 AM 64.0 °F 62.8 °F 96% 30.01 in 5.0 mi East 9.2 mph - 0.08 in Rain Rain
4:35 AM 64.0 °F 62.8 °F 96% 29.97 in 7.0 mi East 15.0 mph - 0.14 in Rain Rain
4:55 AM 64.4 °F 63.0 °F 95% 29.97 in 7.0 mi ESE 12.7 mph - 0.21 in Rain Heavy Rain
5:15 AM 64.8 °F 63.5 °F 96% 29.98 in 7.0 mi SE 10.4 mph - 0.05 in Rain Rain
5:20 AM 64.8 °F 63.5 °F 96% 29.98 in 10.0 mi SSE 9.2 mph - 0.05 in Rain Light Rain
5:38 AM 64.8 °F 63.5 °F 96% 29.97 in 10.0 mi South 4.6 mph - 0.07 in Rain Rain
5:56 AM 64.8 °F 63.5 °F 96% 29.95 in 7.0 mi SE 8.1 mph - 0.10 in Rain Rain
6:15 AM 64.8 °F 63.5 °F 96% 29.95 in 10.0 mi SE 10.4 mph - 0.02 in Rain Rain
6:35 AM 65.3 °F 63.9 °F 95% 29.94 in 10.0 mi SE 9.2 mph - 0.06 in Rain Rain
6:36 AM 65.3 °F 63.9 °F 95% 29.94 in 7.0 mi SE 9.2 mph - 0.06 in Rain Rain
6:59 AM 65.8 °F 64.6 °F 96% 29.94 in 10.0 mi SSE 8.1 mph 16.1 mph 0.09 in Rain Light Rain
7:17 AM 66.4 °F 65.3 °F 96% 29.95 in 10.0 mi SSE 10.4 mph 17.3 mph 0.01 in Rain Light Rain
7:35 AM 66.7 °F 65.5 °F 96% 29.95 in 10.0 mi SSE 10.4 mph 18.4 mph 0.02 in Rain Light Rain
7:55 AM 66.7 °F 65.5 °F 96% 29.93 in 10.0 mi SSE 12.7 mph 16.1 mph 0.03 in Rain Rain
8:15 AM 66.7 °F 65.5 °F 96% 29.92 in 10.0 mi SSE 6.9 mph - 0.01 in Rain Light Rain
8:38 AM 67.5 °F 66.2 °F 96% 29.93 in 10.0 mi South 3.5 mph - 0.01 in   Overcast
8:56 AM 68.0 °F 66.4 °F 95% 29.92 in 10.0 mi South 5.8 mph - 0.02 in   Overcast
9:15 AM 68.4 °F 66.6 °F 94% 29.93 in 10.0 mi South 9.2 mph - N/A   Overcast
9:16 AM 68.4 °F 66.7 °F 95% 29.93 in 10.0 mi South 9.2 mph - N/A   Overcast
9:35 AM 68.5 °F 66.9 °F 95% 29.93 in 10.0 mi SSE 6.9 mph - N/A   Overcast
9:36 AM 68.5 °F 66.9 °F 95% 29.93 in 10.0 mi SSE 6.9 mph - N/A   Overcast
9:59 AM 68.9 °F 67.1 °F 94% 29.92 in 10.0 mi South 8.1 mph - N/A   Overcast
10:35 AM 69.3 °F 67.3 °F 93% 29.92 in 10.0 mi SSW 8.1 mph - N/A   Overcast
10:36 AM 69.3 °F 67.3 °F 93% 29.92 in 10.0 mi SSW 9.2 mph - N/A   Overcast
10:55 AM 69.1 °F 67.5 °F 95% 29.92 in 7.0 mi South 9.2 mph - N/A   Drizzle
10:56 AM 69.1 °F 67.5 °F 95% 29.92 in 7.0 mi South 10.4 mph - N/A   Drizzle
11:15 AM 69.3 °F 68.0 °F 96% 29.92 in 10.0 mi South 10.4 mph 18.4 mph N/A Rain Light Rain
11:38 AM 70.0 °F 68.2 °F 94% 29.92 in 10.0 mi SSW 13.8 mph 24.2 mph N/A   Overcast
11:56 AM 70.0 °F 68.0 °F 93% 29.92 in 10.0 mi SSW 17.3 mph 24.2 mph N/A   Overcast
12:15 PM 71.1 °F 68.7 °F 92% 29.92 in 10.0 mi SW 17.3 mph 25.3 mph N/A   Overcast
12:16 PM 71.2 °F 68.9 °F 92% 29.92 in 10.0 mi SW 16.1 mph 25.3 mph N/A   Overcast
12:35 PM 71.6 °F 68.7 °F 91% 29.91 in 10.0 mi SSW 17.3 mph 27.6 mph N/A   Overcast
12:36 PM 71.8 °F 68.9 °F 91% 29.91 in 10.0 mi SSW 18.4 mph 25.3 mph N/A   Overcast
12:59 PM 72.5 °F 68.9 °F 88% 29.91 in 10.0 mi SSW 20.7 mph 27.6 mph N/A   Overcast
1:17 PM 73.4 °F 68.4 °F 84% 29.91 in 10.0 mi SSW 18.4 mph 27.6 mph N/A   Mostly Cloudy
1:35 PM 73.4 °F 68.4 °F 84% 29.91 in 10.0 mi SSW 18.4 mph 25.3 mph N/A   Scattered Clouds
1:36 PM 73.4 °F 68.2 °F 84% 29.91 in 10.0 mi SSW 16.1 mph 25.3 mph N/A   Scattered Clouds
1:55 PM 73.0 °F 67.6 °F 83% 29.91 in 10.0 mi SSW 18.4 mph 27.6 mph N/A   Scattered Clouds
1:56 PM 73.2 °F 67.6 °F 83% 29.91 in 10.0 mi SSW 18.4 mph 27.6 mph N/A   Scattered Clouds
2:15 PM 73.9 °F 67.6 °F 81% 29.91 in 10.0 mi SW 17.3 mph 23.0 mph N/A   Scattered Clouds
2:38 PM 73.8 °F 67.1 °F 80% 29.91 in 10.0 mi SW 20.7 mph 28.8 mph N/A   Scattered Clouds
2:56 PM 73.6 °F 66.6 °F 79% 29.91 in 10.0 mi SW 19.6 mph 24.2 mph N/A   Clear
3:15 PM 72.9 °F 65.7 °F 78% 29.90 in 10.0 mi SW 16.1 mph 26.5 mph N/A   Clear
3:35 PM 72.5 °F 64.9 °F 77% 29.91 in 10.0 mi SW 16.1 mph 24.2 mph N/A   Clear
3:36 PM 72.7 °F 64.9 °F 77% 29.91 in 10.0 mi SSW 19.6 mph 25.3 mph N/A   Clear
3:59 PM 71.8 °F 63.0 °F 74% 29.91 in 10.0 mi SW 15.0 mph 23.0 mph N/A   Clear
4:17 PM 72.1 °F 62.6 °F 72% 29.92 in 10.0 mi WSW 20.7 mph 27.6 mph N/A   Scattered Clouds
4:35 PM 70.2 °F 60.6 °F 72% 29.92 in 10.0 mi WSW 16.1 mph 23.0 mph N/A   Mostly Cloudy
4:55 PM 68.9 °F 60.3 °F 74% 29.93 in 10.0 mi West 12.7 mph 20.7 mph N/A   Overcast
4:56 PM 68.9 °F 60.3 °F 74% 29.93 in 10.0 mi WSW 10.4 mph - N/A   Overcast
5:20 PM 68.0 °F 60.1 °F 76% 29.93 in 10.0 mi WSW 15.0 mph 20.7 mph N/A   Overcast
5:38 PM 68.0 °F 59.4 °F 74% 29.93 in 10.0 mi WSW 12.7 mph 18.4 mph N/A   Overcast
5:56 PM 67.5 °F 59.4 °F 75% 29.94 in 10.0 mi WSW 13.8 mph 18.4 mph N/A   Overcast
6:15 PM 67.1 °F 59.0 °F 75% 29.94 in 10.0 mi WSW 11.5 mph 17.3 mph N/A   Overcast
6:35 PM 66.7 °F 58.6 °F 75% 29.95 in 10.0 mi WSW 15.0 mph 18.4 mph N/A   Overcast
6:59 PM 66.2 °F 57.9 °F 75% 29.95 in 10.0 mi WSW 16.1 mph 20.7 mph N/A   Overcast
7:17 PM 65.5 °F 56.7 °F 73% 29.96 in 10.0 mi WSW 12.7 mph 19.6 mph N/A   Overcast
7:35 PM 65.5 °F 56.5 °F 73% 29.97 in 10.0 mi WSW 12.7 mph 18.4 mph N/A   Overcast
7:36 PM 65.5 °F 56.5 °F 73% 29.97 in 10.0 mi WSW 11.5 mph 18.4 mph N/A   Overcast
7:55 PM 65.3 °F 56.5 °F 73% 29.97 in 10.0 mi West 10.4 mph 16.1 mph N/A   Overcast
7:56 PM 65.3 °F 56.5 °F 73% 29.98 in 10.0 mi West 10.4 mph 16.1 mph N/A   Overcast
8:15 PM 64.9 °F 55.4 °F 71% 29.99 in 10.0 mi West 10.4 mph 17.3 mph N/A   Overcast
8:20 PM 65.3 °F 55.0 °F 69% 29.99 in 10.0 mi West 10.4 mph 17.3 mph N/A   Overcast
8:38 PM 64.8 °F 54.0 °F 68% 30.00 in 10.0 mi West 12.7 mph 18.4 mph N/A   Overcast
8:56 PM 64.4 °F 53.1 °F 67% 30.01 in 10.0 mi West 10.4 mph 20.7 mph N/A   Overcast
9:15 PM 63.7 °F 52.7 °F 67% 30.01 in 10.0 mi West 11.5 mph 19.6 mph N/A   Overcast
9:35 PM 63.5 °F 52.3 °F 67% 30.02 in 10.0 mi West 10.4 mph 19.6 mph N/A   Overcast
9:59 PM 62.8 °F 52.0 °F 68% 30.02 in 10.0 mi West 10.4 mph 19.6 mph N/A   Mostly Cloudy
10:17 PM 62.6 °F 53.1 °F 71% 30.03 in 10.0 mi WNW 9.2 mph - N/A   Overcast
10:35 PM 62.4 °F 51.1 °F 66% 30.04 in 10.0 mi West 9.2 mph 19.6 mph N/A   Mostly Cloudy
10:55 PM 62.6 °F 52.2 °F 69% 30.04 in 10.0 mi West 8.1 mph - N/A   Mostly Cloudy
11:15 PM 62.6 °F 52.7 °F 70% 30.04 in 10.0 mi West 8.1 mph 16.1 mph N/A   Overcast
11:20 PM 62.6 °F 52.5 °F 70% 30.04 in 10.0 mi WNW 11.5 mph 17.3 mph N/A   Overcast
11:38 PM 62.4 °F 51.8 °F 68% 30.04 in 10.0 mi West 10.4 mph 16.1 mph N/A   Overcast
11:56 PM 62.1 °F 52.0 °F 70% 30.04 in 10.0 mi West 8.1 mph - N/A   Overcast